Regional Weather Roundup
Issued by NWS

Home | Current Version | Previous Version | Graphics & Text | Print | Product List | Glossary On
Versions: 1 2 3 4 5 6 7 8 9 10 11 12 13 14 15 16 17 18 19 20 21 22 23 24 25 26
000
ASUS45 KBOU 220610
RWRCO

WEATHER ROUNDUP FOR COLORADO
NATIONAL WEATHER SERVICE DENVER/BOULDER CO
1200 AM MDT TUE MAY 22 2018

NOTE: "FAIR" INDICATES FEW OR NO CLOUDS BELOW 12000 FEET WITH NO
SIGNIFICANT WEATHER AND/OR OBSTRUCTIONS TO VISIBILITY.

COZ001>005-013-030-031-220700-
...NORTHWEST COLORADO...

CITY           SKY/WX    TMP DP  RH WIND       PRES   REMARKS
CRAIG          FAIR      49  38  65 VRB3      29.98S
HAYDEN         FAIR      56  34  43 E12       30.01F
MEEKER         FAIR      52  35  52 W5        30.01R
RANGELY        FAIR      67  29  24 E3        29.90F
RABBIT EARS PA FAIR      43  30  61 S7        30.24S
STEAMBOAT SPGS FAIR      53  32  44 CALM      30.03R
WALDEN         FAIR      52  32  46 S3        30.13S
$$

COZ006>008-011-220700-
...WEST CENTRAL VALLEYS...

CITY           SKY/WX    TMP DP  RH WIND       PRES   REMARKS
GRAND JUNCTION FAIR      70  35  27 S7        29.89R
MONTROSE       FAIR      62  32  32 S10       29.99R
EAGLE          FAIR      55  33  43 E5        30.04S
RIFLE          FAIR      63  36  36 CALM      29.95R
DELTA          FAIR      65  36  34 CALM      29.96R
NUCLA          FAIR      63  28  27 NE7       30.00R
$$

COZ017>023-064>068-220700-
...SOUTHWEST COLORADO...

CITY           SKY/WX    TMP DP  RH WIND       PRES   REMARKS
DURANGO        FAIR      49  39  68 N3        30.06F
CORTEZ         FAIR      55  35  47 VRB3      29.99F
PAGOSA SPRINGS FAIR      46  37  71 S3        30.15F
TELLURIDE      FAIR      47  30  52 SE5       30.19F
WOLF CREEK PAS FAIR      32  32 100 CALM      30.40S
$$

COZ009-010-012-014-032>034-037-058>063-220700-
...CENTRAL COLORADO...

CITY           SKY/WX    TMP DP  RH WIND       PRES   REMARKS
ASPEN          FAIR      53  32  44 S9        30.09F
BUENA VISTA    FAIR      46  37  70 NW3       30.17F
COPPER MTN     FAIR      45  23  42 SE13      30.34F
BERTHOUD PASS  FAIR      36  27  69 SE15G23   30.37F
COTTONWOOD PAS FAIR      45  39  81 CALM      30.24F
GUNNISON       FAIR      47  35  63 N7        30.16F
GRANBY         FAIR      45  34  65 SE5       30.14R
KREMMLING      FAIR      54  32  43 CALM      30.10R
LEADVILLE      FAIR      37  32  82 CALM      30.24F
MONARCH PASS   FAIR      34  30  86 MISG      30.44F
SALIDA         FAIR      51  40  66 S12       30.22F
SUNLIGHT       FAIR      43  25  49 CALM      30.30S
WILKERSON PASS FAIR      37  30  75 W6        30.33F
$$

COZ069>075-220700-
...SAN LUIS VALLEY/SANGRE DE CRISTO MOUNTAINS...

CITY           SKY/WX    TMP DP  RH WIND       PRES   REMARKS
ALAMOSA        FAIR      41  40  96 NE3       30.16F
DEL NORTE      FAIR      40  38  95 W8        30.21F
LA VETA PASS   FAIR      37  34  87 MISG      30.34F
SAGUACHE       NOT AVBL
$$

COZ035-036-038>040-220700-
...NORTHERN COLORADO FRONT RANGE...

CITY           SKY/WX    TMP DP  RH WIND       PRES   REMARKS
DENVER INTL AP MOCLDY    51  40  65 E6        29.97F
AURORA         MOCLDY    56  38  51 CALM      29.99F
FRONT RANGE AP FAIR      55  44  67 S8        29.98F
ERIE MUNI ARPT FAIR      55  48  77 NW3       30.01S
BOULDER MUN AP FAIR      61  45  55 NW3       29.97S
CENTENNIAL     MOCLDY    55  38  52 S3        30.00F
BROOMFIELD     FAIR      61  45  55 N13       29.99S
FORT COLLINS   FAIR      59  50  72 N6        29.98R
LONGMONT       FAIR      61  48  62 N7        29.99S
$$

COZ041-046-047-076>085-087-088-220700-
...PIKES PEAK/PALMER DIVIDE AND SOUTHERN FOOTHILLS...

CITY           SKY/WX    TMP DP  RH WIND       PRES   REMARKS
COLO. SPRINGS  MOCLDY    55  40  56 W5        30.03F
A. F. ACADEMY  FAIR      46  39  78 N7        30.03F
SCHRIEVER AFB  NOT AVBL
CHEYENNE MTN   FAIR      57  34  41 W3        30.01F
ELLICOTT         N/A    N/A N/A N/A S9        30.01F
FALCON         FAIR      51  37  58 CALM      30.06F
FORT CARSON    FAIR      53  37  56 N7        30.00S
LIMON          FAIR      51  40  65 CALM      30.00S
MONUMENT HILL  FAIR      43  36  75 SW6       30.08F
CANON CITY     FAIR      59  41  51 W8G18     29.99S
WALSENBURG     FAIR      55  41  58 W15       30.03F
TRINIDAD       FAIR      53  43  68 W9        30.04F
$$

COZ042>045-048>051-090-091-220700-
...NORTHEAST COLORADO...

CITY           SKY/WX    TMP DP  RH WIND       PRES   REMARKS
GREELEY ARPT   FAIR      55  50  83 NE3       29.95F
AKRON          FAIR      59  51  75 SW8       29.94F
BURLINGTON     FAIR      53  42  66 S12       29.96S
WRAY           FAIR      59  46  63 W7        29.90S
YUMA           FAIR      54  46  76 SW8       29.92S
STERLING       FAIR      59  55  88 N8        29.92R
HOLYOKE        FAIR      61  55  82 NE7       29.91S
FORT MORGAN    FAIR      58  51  80 N10       29.94F
$$

COZ086-089-092>099-220700-
...SOUTHEAST COLORADO...

CITY           SKY/WX    TMP DP  RH WIND       PRES   REMARKS
PUEBLO         FAIR      54  39  57 NW6       29.95F
LA JUNTA       FAIR      64  44  48 SW16      29.98R
LAMAR          FAIR      60  47  61 S5        29.95F
SPRINGFIELD      N/A     64  50  60 SW13G25   29.98F
$$




USA.gov is the U.S. government's official web portal to all federal, state and local government web resources and services.